Flag for Germany Weather past 2 weeks in Homberg (Efze), Hesse, Germany

53 °F

Low clouds.

Feels Like: 53 °F
Forecast: 38 / 53 °F
Wind: 2 mph from Northwest

Location: Fritzlar

Current Time: Oct 9, 2015 at 11:17:45 AM

Latest Report: Oct 9, 2015 at 10:00 AM

Visibility: 4 mi

Pressure: 30.16 "Hg

Humidity: 94%

Dew point: 51 °F

Location of Homberg (Efze)Location

Historic Weather in Homberg (Efze) — Graph


Homberg (Efze) temperature yesterday

Maximum temperature yesterday: 58 °F (at 3:00 PM)
Minimum temperature yesterday: 54 °F (at 8:00 AM)
Average temperature yesterday: 56 °F

Past Weeks' High & Low Weather Summary

High66 °F (Oct 6, 3:00 PM)98% (Sep 28, 8:00 AM)30.66 "Hg (Sep 28, 8:00 AM)
Low34 °F (Oct 2, 8:00 AM)38% (Oct 1, 4:00 PM)29.66 "Hg (Oct 6, 5:00 PM)
Average53 °F78%30.22 "Hg
* Reported Sep 24 10:00 AM — Oct 9 10:00 AM, Homberg (Efze), Weather by CustomWeather, © 2015

Note: Actual official high and low records may vary slightly from our data, if they occured in-between our weather recording intervals... More about our weather records


Homberg (Efze) weather history for previous 24 hours

Time TempWeatherWind HumidityBarometerVisibility
10:00 AM
Fri, Oct 9
53 °FLow clouds.2 mph94%30.16 "Hg4 mi
9:00 AM53 °FRain. Low clouds.2 mph94%30.15 "Hg4 mi
8:00 AM53 °FRain. Low clouds.2 mph94%30.15 "Hg3 mi
7:00 AM53 °FRain. Low clouds.1 mph96%30.14 "Hg3 mi
4:00 AM53 °FDrizzle. Low clouds.1 mph95%30.16 "Hg2 mi
3:00 AM53 °FDrizzle. Low clouds.1 mph95%30.16 "Hg1 mi
2:00 AM53 °FDrizzle. Low clouds.N/A92%30.16 "Hg2 mi
1:00 AM54 °FDrizzle. Low clouds.1 mph91%30.16 "Hg4 mi
12:00 AM54 °FRain. Low clouds.2 mph90%30.17 "Hg5 mi
11:00 PM
Thu, Oct 8
55 °FDrizzle. Low clouds.2 mph95%30.16 "Hg4 mi
10:00 PM55 °FDrizzle. Low clouds.1 mph95%30.16 "Hg3 mi
9:00 PM55 °FRain. Low clouds.1 mph94%30.15 "Hg3 mi
8:00 PM56 °FRain. Low clouds.1 mph92%30.14 "Hg6 mi
7:00 PM56 °FRain. Low clouds.1 mph89%30.14 "Hg6 mi
6:00 PM57 °FLow clouds.2 mph83%30.13 "Hg7 mi
5:00 PM57 °FOvercast.2 mph84%30.12 "Hg7 mi
4:00 PM58 °FOvercast.3 mph82%30.12 "Hg12 mi
3:00 PM58 °FOvercast.2 mph79%30.11 "Hg16 mi
2:00 PM58 °FOvercast.3 mph82%30.11 "Hg12 mi
1:00 PM57 °FOvercast.3 mph82%30.11 "Hg11 mi
12:00 PM57 °FOvercast.3 mph81%30.10 "Hg8 mi
11:00 AM56 °FOvercast.3 mph84%30.09 "Hg14 mi
Weather by CustomWeather, © 2015

See weather overviewHow to use our weather pages